| time (UTC) | temp F | wind direction | speed MPH | gust MPH | rain 1hr in | rain 24hr in | rain mn in | humidity % | barometer mb |
| 20260901114423 | 83 | 0 | 0.0 | 5.0 | 0.00 | 0.00 | 0.00 | 46 | 980.5 |
| 20260901111423 | 81 | 331 | 0.0 | 4.0 | 0.00 | 0.00 | 0.00 | 48 | 980.7 |
| 20260901104436 | 81 | 0 | 0.0 | 8.0 | 0.00 | 0.00 | 0.00 | 50 | 981.0 |
| 20260901101421 | 79 | 0 | 0.0 | 5.0 | 0.00 | 0.00 | 0.00 | 53 | 981.1 |
| 20260901094419 | 78 | 26 | 0.0 | 5.0 | 0.00 | 0.00 | 0.00 | 55 | 981.4 |
| 20260901091419 | 77 | 0 | 0.0 | 1.0 | 0.00 | 0.00 | 0.00 | 60 | 981.5 |
| 20260901084418 | 74 | 0 | 0.0 | 0.0 | 0.00 | 0.00 | 0.00 | 63 | 981.5 |
| 20260901081418 | 72 | 0 | 0.0 | 0.0 | 0.00 | 0.00 | 0.00 | 66 | 981.5 |
| 20260901074419 | 68 | 322 | 0.0 | 0.0 | 0.00 | 0.00 | 0.00 | 73 | 981.3 |
| 20260901071421 | 63 | 0 | 0.0 | 0.0 | 0.00 | 0.00 | 0.00 | 81 | 981.2 |
| 20260901064417 | 60 | 5 | 0.0 | 0.0 | 0.00 | 0.00 | 0.00 | 83 | 981.1 |
| 20260901061414 | 58 | 5 | 0.0 | 0.0 | 0.00 | 0.00 | 0.00 | 87 | 981.1 |
| 20260901061134 | 56 | 5 | 0.0 | 0.0 | 0.00 | 0.00 | 0.00 | 86 | 981.0 |
| 20260901051412 | 56 | 5 | 0.0 | 0.0 | 0.00 | 0.00 | 0.00 | 85 | 980.7 |
| 20260901044411 | 56 | 5 | 0.0 | 0.0 | 0.00 | 0.00 | 0.00 | 84 | 980.6 |
| 20260901041410 | 57 | 5 | 0.0 | 0.0 | 0.00 | 0.00 | 0.00 | 82 | 980.6 |
| 20260901034409 | 57 | 5 | 0.0 | 0.0 | 0.00 | 0.01 | 0.00 | 81 | 980.5 |
| 20260901031409 | 58 | 5 | 0.0 | 0.0 | 0.00 | 0.01 | 0.00 | 80 | 980.6 |
| 20260901024409 | 59 | 5 | 0.0 | 0.0 | 0.00 | 0.01 | 0.00 | 80 | 980.8 |
| 20260901021406 | 59 | 5 | 0.0 | 0.0 | 0.00 | 0.01 | 0.00 | 80 | 980.9 |
| 20260901014405 | 60 | 5 | 0.0 | 0.0 | 0.00 | 0.01 | 0.00 | 80 | 980.8 |
| 20260901011406 | 60 | 9 | 0.0 | 0.0 | 0.00 | 0.01 | 0.00 | 79 | 980.8 |
| 20260901004404 | 60 | 9 | 0.0 | 0.0 | 0.00 | 0.01 | 0.00 | 77 | 980.8 |
| 20260901001403 | 61 | 9 | 0.0 | 0.0 | 0.00 | 0.01 | 0.00 | 76 | 980.9 |
| 20260831234406 | 62 | 9 | 0.0 | 0.0 | 0.00 | 0.01 | 0.00 | 75 | 981.0 |
| 20260831231402 | 62 | 9 | 0.0 | 0.0 | 0.00 | 0.01 | 0.00 | 74 | 980.9 |
| 20260831224404 | 63 | 9 | 0.0 | 0.0 | 0.00 | 0.01 | 0.00 | 74 | 980.8 |
| 20260831221403 | 65 | 9 | 0.0 | 0.0 | 0.00 | 0.01 | 0.00 | 71 | 980.8 |
| 20260831214402 | 66 | 9 | 0.0 | 0.0 | 0.00 | 0.01 | 0.01 | 69 | 980.8 |
| 20260831212746 | 67 | 9 | 0.0 | 0.0 | 0.00 | 0.01 | 0.01 | 67 | 980.8 |
| 20260831204359 | 68 | 13 | 0.0 | 0.0 | 0.00 | 0.01 | 0.01 | 67 | 980.7 |
| 20260831202750 | 68 | 12 | 0.0 | 0.0 | 0.00 | 0.01 | 0.01 | 66 | 980.6 |
| 20260831194357 | 69 | 0 | 0.0 | 0.0 | 0.00 | 0.01 | 0.01 | 64 | 980.2 |
| 20260831191358 | 70 | 0 | 0.0 | 0.0 | 0.00 | 0.01 | 0.01 | 62 | 979.9 |
| 20260831185740 | 71 | 0 | 0.0 | 0.0 | 0.00 | 0.01 | 0.01 | 61 | 979.5 |
| 20260831181357 | 73 | 54 | 0.0 | 0.0 | 0.00 | 0.01 | 0.01 | 60 | 979.2 |
| 20260831174355 | 75 | 55 | 0.0 | 0.0 | 0.00 | 0.01 | 0.01 | 54 | 979.0 |
| 20260831171354 | 76 | 56 | 0.0 | 0.0 | 0.00 | 0.01 | 0.01 | 50 | 979.0 |
| 20260831164355 | 78 | 57 | 0.0 | 0.0 | 0.00 | 0.01 | 0.01 | 48 | 979.0 |
| 20260831162738 | 79 | 0 | 0.0 | 0.0 | 0.00 | 0.01 | 0.01 | 47 | 979.0 |
| 20260831154352 | 79 | 0 | 0.0 | 3.0 | 0.00 | 0.01 | 0.01 | 45 | 978.9 |
| 20260831151404 | 79 | 128 | 0.0 | 3.0 | 0.00 | 0.01 | 0.01 | 44 | 979.1 |
| 20260831151140 | 80 | 0 | 0.0 | 3.0 | 0.00 | 0.01 | 0.01 | 45 | 979.2 |
| 20260831141352 | 80 | 0 | 0.0 | 4.0 | 0.00 | 0.01 | 0.01 | 44 | 979.2 |
| 20260831134352 | 81 | 0 | 0.0 | 1.0 | 0.00 | 0.01 | 0.01 | 44 | 979.3 |
| 20260831131349 | 82 | 0 | 0.0 | 3.0 | 0.00 | 0.01 | 0.01 | 42 | 979.6 |
| 20260831124349 | 82 | 336 | 0.0 | 0.0 | 0.00 | 0.01 | 0.01 | 45 | 979.7 |
| 20260831124121 | 81 | 0 | 0.0 | 2.0 | 0.00 | 0.01 | 0.01 | 46 | 979.9 |